{"data":{"norad_id":63185,"epoch":"2026-05-24T22:14:29.872896Z","epoch_age_seconds":71447,"freshness":"FRESH","line1":"1 63185U 25048C   26144.92673464  .00261543  00000+0  19735-2 0  9997","line2":"2 63185  43.0005 220.1531 0001306  50.5856 309.5127 15.70898161 70505","mean_motion":15.70898161,"eccentricity":0.0001306,"inclination_deg":43.0005,"raan_deg":220.1531,"arg_perigee_deg":50.5856,"mean_anomaly_deg":309.5127,"bstar":0.0019735,"rev_number":7050,"period_min":91.667304459974,"perigee_km":355.44931043686,"apogee_km":357.2083529121,"semimajor_km":6734.4658316745,"source":"CELESTRAK","updated_at":"2026-05-25T13:38:19.919066Z"}}